Weather in Dien Bien Phu

Vietnam     21°23′37″N   103°01′02″E
temp.,
°C
wind,
m/s
gust,
m/s
humid.,
%
clouds,
%
prec.,
mm/h
press.,
hPa
HPBL,
m
13 april, tue
tue1301:00+20ese0091100 0.3 101211
04:00+19ese0093100 0.0 101211
07:00+20s01875 0.0 101366
10:00+28sw13551 0.1 1013892
13:00+33s143862 0.4 10092577
16:00+25n1268100 0.3 1008253
19:00+19ese2385100 1.1 1012117
22:00+18ese118791 0.0 101316
14 april, wed
wed1401:00+17ssw119778 1.8 101315
04:00+17wsw0097100 0.1 101214
07:00+19ssw019363 0.1 101383
10:00+27sw136071 0.0 1013750
13:00+31wsw2441100 0.0 10091775
16:00+31w163699 0.0 10052651
19:00+24n116445 0.1 100711
22:00+23ese117128 0.1 100911
15 april, thu
thu1501:00+20sse118496 0.2 100911
04:00+19s008799 0.1 100911
07:00+20s128299 0.1 1011108
10:00+28sw2354100 0.0 1011940
13:00+32sw253484 0.0 10072808
16:00+30ssw134058 0.0 1004645
19:00+24se1157100 0.0 100611
22:00+22ese116683 0.0 100911
16 april, fri
fri1601:00+20ese117335 0.0 100912
04:00+19e1185100 0.0 100913
07:00+21ese118315 0.0 1011128
10:00+31se12460 0.0 10121216
13:00+34wsw233239 0.0 10083256
16:00+33sse133099 0.0 10042286
19:00+24ese117399 0.4 100949
22:00+21ese1189100 0.4 101338
17 april, sat
sat1701:00+20ese1293100 0.5 101364
04:00+20ese1192100 0.6 101348
07:00+19sse1189100 1.5 101675
10:00+20sw1288100 0.4 1018185
13:00+19ese0189100 2.8 1015236
16:00+25ese1258100 0.1 10111076
19:00+19e1195100 1.4 101433
22:00+18ene1196100 3.8 101631